This demonstration page uses our WeatherBlox Daily Observations layout. Learn more.

39.29038, -76.61219

Hourly Observations for July 10, 2018

Temp ( °F °C ) Dew Point ( °F °C ) Humidity (%) Winds ( mph kmh ) Pressure ( in mb ) Visibility ( mi km ) Precip ( " mm )
12:54 am 00:54 undefined 77 25 59 15 54 54 undefined N/A 30.08 1019 N/A 0 0
1:54 am 01:54 undefined 76 24.4 59 15 56 56 undefined N/A 30.06 1018 N/A 0 0
2:54 am 02:54 undefined 76 24.4 59 15 56 56 undefined N/A 30.05 1018 N/A 0 0
3:54 am 03:54 undefined 75 23.9 59 15 58 58 undefined N/A 30.04 1017 N/A 0 0
4:54 am 04:54 undefined 74 23.3 61 16.1 64 64 undefined N/A 30.03 1017 N/A 0 0
5:54 am 05:54 undefined 74 23.3 61 16.1 64 64 undefined N/A 30.03 1017 N/A 0 0
6:54 am 06:54 undefined 76 24.4 62 16.7 62 62 undefined N/A 30.04 1017 N/A 0 0
7:54 am 07:54 undefined 81 27.2 62 16.7 53 53 undefined N/A 30.03 1017 N/A 0 0
8:54 am 08:54 undefined 85 29.4 61 16.1 45 45 undefined N/A 30.02 1017 N/A 0 0
9:54 am 09:54 undefined 90 32.2 62 16.7 39 39 undefined N/A 30.01 1016 N/A 0 0
10:54 am 10:54 undefined 91 32.8 62 16.7 38 38 undefined N/A 30 1016 N/A 0 0
11:54 am 11:54 undefined 92 33.3 59 15 33 33 undefined N/A 29.98 1015 N/A 0 0
12:54 pm 12:54 undefined 93 33.9 60 15.6 33 33 undefined N/A 29.96 1015 N/A 0 0
1:54 pm 13:54 undefined 94 34.4 59 15 31 31 undefined N/A 29.94 1014 N/A 0 0
2:54 pm 14:54 undefined 95 35 59 15 30 30 undefined N/A 29.92 1013 N/A 0 0
3:54 pm 15:54 undefined 96 35.6 61 16.1 31 31 undefined N/A 29.91 1013 N/A 0 0
4:54 pm 16:54 undefined 96 35.6 62 16.7 32 32 undefined N/A 29.89 1012 N/A 0 0
5:54 pm 17:54 undefined 94 34.4 61 16.1 33 33 undefined N/A 29.88 1012 N/A 0 0
6:54 pm 18:54 undefined 92 33.3 62 16.7 37 37 undefined N/A 29.88 1012 N/A 0 0
7:54 pm 19:54 undefined 91 32.8 64 17.8 41 41 undefined N/A 29.88 1012 N/A 0 0
8:54 pm 20:54 undefined 90 32.2 65 18.3 44 44 undefined N/A 29.89 1012 N/A 0 0
9:54 pm 21:54 undefined 88 31.1 66 18.9 48 48 undefined N/A 29.89 1012 N/A 0 0
10:54 pm 22:54 undefined 87 30.6 66 18.9 50 50 undefined N/A 29.9 1013 N/A 0 0
11:54 pm 23:54 undefined 86 30 64 17.8 48 48 undefined N/A 29.9 1012 N/A 0 0

Powered by AerisWeather